星链-3295 (STARLINK-3295 )

导读

STARLINK-3295是美国SpaceX公司星链星座的卫星,于2022年1月6日发射,属于星链大规模组网阶段的部署卫星。星链项目旨在通过低轨卫星星座为全球提供高速宽带互联网服务,该卫星运行在近地轨道,是星链实现全球覆盖的组成单元之一,服务于偏远地区网络接入、移动场景通信等应用,也引发了太空 debris、天文观测影响等相关讨论。

基本信息
目录编号:
50840
目录名称:
STARLINK-3295
国际标识:
2022-001AP
轨道中心:
EARTH
卫星名称:
星链-3295
卫星全名:
星链-3295 (STARLINK-3295 )
卫星状态:
在轨 (已飞行1623 天)
发射日期:
2022-01-06 UTC
国别 :
美国 (US)
星等 :
--
轨道信息
数据来源 国际轨道数据 AOE轨道数据
星历时间 2026-06-17T10:32:45+0800
16小时前
查看轨道信息
2026-06-14T02:00:00+0800
4天前
查看轨道信息
半长轴 6917.909km 6917.883km
偏心率 0.0001277 0.0002004
轨道倾角 53.161° 53.160°
近地点辐角 90.045° 127.278°
升交点赤经 92.729° 107.809°
平近点角 270.069° 353.372°
近地点 538.888km 538.359km
远地点 540.656km 541.133km
周期 95.438分钟 95.438分钟
每日圈数 15.088309 15.088393
详细信息
固有亮度:
5
最大亮度:
2.5
卫星平台:
Starlink v1.5
覆盖范围:
全球
运营商:
太空探索技术公司
运营商所在国:
美国
制造商(研发单位):
太空探索技术公司
制造商所在国:
美国
使用方式:
暂无
卫星简介
星链(Starlink)计划是由太空探索技术公司(SpaceX)提出的一个巨型低轨卫星互联网星座项目,计划在2019年至2024年间在太空搭建由约1.2万颗卫星组成的“星链”网络,其中1584颗将部署在地球上空550千米处的近地轨道,并从2020年开始工作。该卫星仍在工作。
2D轨道图
3D轨道图
轨道高度分析图
轨道倾角分析图
轨道综合分析图
查看轨道综合分析图